When you browse on this site, cookies collect data to enhance your experience and personalize the content and advertising you see.
Visit our Privacy Policy to learn more. By continuing to use the site, you agree to this use of cookies and data.
  • In Hungary
  • List of Countries
  • For 7 days
  • Water Temperature
  • Weather Map
  • News
  • Weather Widgets
  • user-avatar
    Login

    Hourly Weather Novyy Yavash

    Today, 20 August, Tuesday

    Time Temperature Precipitation Wind Pressure Humidity
    00:00 +19°C° 0 mm 2 mps 748 mmHg 88%
    01:00 +19°C° 0 mm 2 mps 748 mmHg 90%
    02:00 +19°C° 0 mm 1 mps 748 mmHg 92%
    03:00 +19°C° 0 mm 1 mps 748 mmHg 94%
    04:00 +18°C° 0 mm 2 mps 748 mmHg 95%
    05:00 +18°C° 0 mm 2 mps 748 mmHg 95%
    06:00 +18°C° 0 mm 3 mps 749 mmHg 95%
    07:00 +20°C° 0 mm 3 mps 749 mmHg 89%
    08:00 +21°C° 0 mm 3 mps 749 mmHg 84%
    09:00 +22°C° 0 mm 3 mps 749 mmHg 78%
    10:00 +24°C° 0 mm 3 mps 749 mmHg 74%
    11:00 +24°C° 0 mm 3 mps 749 mmHg 71%
    12:00 +25°C° 0 mm 3 mps 749 mmHg 67%
    13:00 +25°C° 0 mm 4 mps 749 mmHg 67%
    14:00 +25°C° 0 mm 4 mps 749 mmHg 66%
    15:00 +26°C° 0 mm 4 mps 750 mmHg 66%
    16:00 +25°C° 0 mm 3 mps 750 mmHg 71%
    17:00 +24°C° 0 mm 3 mps 750 mmHg 77%
    18:00 +22°C° 0 mm 3 mps 750 mmHg 82%
    19:00 +20°C° 0 mm 2 mps 750 mmHg 86%
    20:00 +19°C° 0 mm 2 mps 750 mmHg 90%
    21:00 +18°C° 0 mm 2 mps 750 mmHg 94%
    22:00 +17°C° 0 mm 2 mps 750 mmHg 94%
    23:00 +18°C° 0 mm 1 mps 750 mmHg 94%

    Tomorrow, 21 August, Wednesday

    Time Temperature Precipitation Wind Pressure Humidity
    00:00 +18°C° 0 mm 1 mps 750 mmHg 94%
    01:00 +18°C° 0 mm 1 mps 750 mmHg 94%
    02:00 +16°C° 0 mm 2 mps 750 mmHg 94%
    03:00 +16°C° 0 mm 2 mps 750 mmHg 95%
    04:00 +17°C° 0 mm 2 mps 750 mmHg 94%
    05:00 +17°C° 0 mm 3 mps 750 mmHg 94%
    06:00 +17°C° 0 mm 3 mps 750 mmHg 94%
    07:00 +19°C° 0 mm 3 mps 751 mmHg 88%
    08:00 +20°C° 0 mm 3 mps 751 mmHg 83%
    09:00 +22°C° 0 mm 3 mps 751 mmHg 77%
    10:00 +24°C° 0 mm 3 mps 751 mmHg 74%
    11:00 +24°C° 0 mm 3 mps 751 mmHg 71%
    12:00 +25°C° 0 mm 3 mps 751 mmHg 67%
    13:00 +25°C° 0 mm 3 mps 751 mmHg 67%
    14:00 +25°C° 0 mm 3 mps 751 mmHg 67%
    15:00 +25°C° 0 mm 2 mps 751 mmHg 67%
    16:00 +25°C° 0 mm 2 mps 751 mmHg 71%
    17:00 +24°C° 0 mm 2 mps 751 mmHg 76%
    18:00 +23°C° 0 mm 1 mps 751 mmHg 80%
    19:00 +22°C° 0 mm 1 mps 751 mmHg 83%
    20:00 +21°C° 0 mm 1 mps 751 mmHg 86%
    21:00 +17°C° 0 mm 0 mps 751 mmHg 89%
    22:00 +17°C° 0 mm 0 mps 751 mmHg 89%
    23:00 +17°C° 0 mm 0 mps 751 mmHg 90%

    Day after tomorrow, 22 August, Thursday

    Time Temperature Precipitation Wind Pressure Humidity
    00:00 +18°C° 0 mm 1 mps 751 mmHg 91%
    01:00 +18°C° 0 mm 1 mps 751 mmHg 92%
    02:00 +18°C° 0 mm 1 mps 751 mmHg 92%
    03:00 +18°C° 0 mm 1 mps 752 mmHg 93%
    04:00 +18°C° 0 mm 1 mps 751 mmHg 92%
    05:00 +19°C° 0 mm 1 mps 751 mmHg 92%
    06:00 +19°C° 0 mm 1 mps 751 mmHg 91%
    07:00 +21°C° 0 mm 1 mps 751 mmHg 86%
    08:00 +22°C° 0 mm 1 mps 751 mmHg 82%
    09:00 +23°C° 0 mm 2 mps 751 mmHg 77%
    10:00 +24°C° 0 mm 2 mps 751 mmHg 74%
    11:00 +25°C° 0 mm 2 mps 751 mmHg 71%
    12:00 +26°C° 0 mm 2 mps 751 mmHg 68%
    13:00 +26°C° 0 mm 3 mps 751 mmHg 69%
    14:00 +26°C° 0 mm 3 mps 750 mmHg 69%
    15:00 +26°C° 0 mm 3 mps 750 mmHg 69%
    16:00 +25°C° 0 mm 3 mps 750 mmHg 74%
    17:00 +25°C° 0 mm 3 mps 750 mmHg 79%
    18:00 +24°C° 0 mm 3 mps 749 mmHg 84%
    19:00 +22°C° 0 mm 3 mps 749 mmHg 87%
    20:00 +20°C° 0 mm 3 mps 749 mmHg 89%
    21:00 +19°C° 0 mm 3 mps 749 mmHg 92%
    22:00 +19°C° 0 mm 3 mps 749 mmHg 92%
    23:00 +19°C° 0 mm 3 mps 749 mmHg 93%

    23 August, Friday

    Time Temperature Precipitation Wind Pressure Humidity
    00:00 +19°C° 0 mm 3 mps 749 mmHg 93%
    01:00 +18°C° 0 mm 3 mps 749 mmHg 94%
    02:00 +18°C° 0 mm 3 mps 749 mmHg 94%
    03:00 +18°C° 0 mm 3 mps 749 mmHg 95%
    04:00 +18°C° 0.2 mm 3 mps 749 mmHg 95%
    05:00 +18°C° 0.2 mm 3 mps 750 mmHg 95%
    06:00 +18°C° 0.2 mm 3 mps 750 mmHg 95%
    07:00 +18°C° 0.2 mm 3 mps 750 mmHg 92%
    08:00 +17°C° 0.2 mm 3 mps 750 mmHg 90%
    09:00 +17°C° 0.2 mm 3 mps 750 mmHg 87%
    10:00 +18°C° 0 mm 3 mps 750 mmHg 80%
    11:00 +19°C° 0 mm 3 mps 751 mmHg 73%
    12:00 +20°C° 0 mm 3 mps 751 mmHg 66%
    13:00 +21°C° 0 mm 3 mps 751 mmHg 63%
    14:00 +21°C° 0 mm 3 mps 751 mmHg 61%
    15:00 +21°C° 0 mm 3 mps 751 mmHg 58%
    16:00 +20°C° 0 mm 3 mps 751 mmHg 64%
    17:00 +19°C° 0 mm 2 mps 751 mmHg 69%
    18:00 +18°C° 0 mm 2 mps 751 mmHg 74%
    19:00 +17°C° 0 mm 2 mps 751 mmHg 76%
    20:00 +16°C° 0 mm 2 mps 751 mmHg 78%
    21:00 +15°C° 0 mm 1 mps 751 mmHg 80%
    22:00 +15°C° 0 mm 1 mps 751 mmHg 81%
    23:00 +15°C° 0 mm 1 mps 751 mmHg 82%

    24 August, Saturday

    Time Temperature Precipitation Wind Pressure Humidity
    00:00 +14°C° 0 mm 1 mps 751 mmHg 83%
    01:00 +14°C° 0 mm 1 mps 751 mmHg 83%
    02:00 +14°C° 0 mm 1 mps 751 mmHg 84%
    03:00 +14°C° 0 mm 1 mps 751 mmHg 84%
    04:00 +14°C° 0 mm 1 mps 751 mmHg 84%
    05:00 +15°C° 0 mm 1 mps 751 mmHg 83%
    06:00 +15°C° 0 mm 1 mps 751 mmHg 83%
    07:00 +16°C° 0 mm 1 mps 751 mmHg 78%
    08:00 +19°C° 0 mm 1 mps 751 mmHg 73%
    09:00 +20°C° 0 mm 1 mps 751 mmHg 67%
    10:00 +21°C° 0 mm 1 mps 750 mmHg 63%
    11:00 +22°C° 0 mm 1 mps 750 mmHg 59%
    12:00 +21°C° 0 mm 2 mps 750 mmHg 55%
    13:00 +21°C° 0.2 mm 2 mps 750 mmHg 57%
    14:00 +21°C° 0.2 mm 2 mps 750 mmHg 58%
    15:00 +21°C° 0.2 mm 3 mps 749 mmHg 59%
    16:00 +20°C° 0.2 mm 3 mps 749 mmHg 64%
    17:00 +19°C° 0.2 mm 2 mps 749 mmHg 70%
    18:00 +18°C° 0.2 mm 2 mps 749 mmHg 75%
    19:00 +17°C° 0 mm 2 mps 749 mmHg 79%
    20:00 +15°C° 0 mm 2 mps 749 mmHg 82%
    21:00 +14°C° 0 mm 2 mps 749 mmHg 86%
    22:00 +14°C° 0 mm 2 mps 749 mmHg 88%
    23:00 +13°C° 0 mm 2 mps 749 mmHg 90%

    25 August, Sunday

    Time Temperature Precipitation Wind Pressure Humidity
    00:00 +13°C° 0 mm 2 mps 749 mmHg 92%
    01:00 +12°C° 0 mm 2 mps 749 mmHg 92%
    02:00 +12°C° 0 mm 2 mps 749 mmHg 93%
    03:00 +12°C° 0 mm 2 mps 749 mmHg 93%
    04:00 +11°C° 0 mm 3 mps 749 mmHg 93%
    05:00 +11°C° 0 mm 3 mps 749 mmHg 92%
    06:00 +12°C° 0 mm 3 mps 749 mmHg 92%
    07:00 +13°C° 0 mm 3 mps 749 mmHg 87%
    08:00 +15°C° 0 mm 4 mps 749 mmHg 81%
    09:00 +18°C° 0 mm 4 mps 749 mmHg 76%
    10:00 +19°C° 0 mm 5 mps 748 mmHg 72%
    11:00 +20°C° 0 mm 5 mps 748 mmHg 69%
    12:00 +21°C° 0 mm 6 mps 748 mmHg 66%
    13:00 +20°C° 0.4 mm 6 mps 747 mmHg 69%
    14:00 +20°C° 0.4 mm 5 mps 747 mmHg 72%
    15:00 +20°C° 0.4 mm 5 mps 747 mmHg 75%
    16:00 +19°C° 0.5 mm 5 mps 746 mmHg 80%
    17:00 +18°C° 0.5 mm 4 mps 746 mmHg 85%
    18:00 +17°C° 0.5 mm 3 mps 746 mmHg 90%
    19:00 +16°C° 0 mm 3 mps 746 mmHg 92%
    20:00 +14°C° 0 mm 3 mps 746 mmHg 93%
    21:00 +13°C° 0 mm 4 mps 746 mmHg 95%
    22:00 +13°C° 0 mm 4 mps 746 mmHg 94%
    23:00 +12°C° 0 mm 4 mps 746 mmHg 94%
    Show more